Grand Island, NE

7:26 AM CDT on April 26, 2017 (GMT -0500)
Central Nebraska Regional

Weather History for KGRI - September, 2012

Change the Weather History Date:

Sunday, September 16, 2012

  Actual Average Record
Temperature  
Mean Temperature 70 °F 65 °F  
Max Temperature 81 °F 78 °F 97 °F (1955)
Min Temperature 59 °F 52 °F 28 °F (1903)
Degree Days  
Heating Degree Days 0 3  
Month to date heating degree days 10 30  
Since 1 July heating degree days 14 40  
Cooling Degree Days 5 3  
Month to date cooling degree days 111 80  
Year to date cooling degree days 1495 994  
Growing Degree Days 20 (Base 50)    
Moisture  
Dew Point 56 °F    
Average Humidity 67    
Maximum Humidity 100    
Minimum Humidity 33    
Precipitation  
Precipitation 0.00 in 0.07 in 1.33 in (1970)
Month to date precipitation 0.47 1.22  
Year to date precipitation 8.58 21.99  
Snow  
Snow 0.00 in 0.00 in - ()
Month to date snowfall 0.0 0.0  
Since 1 July snowfall 0.0 0.0  
Since 1 September snowfall 0.0 0.0  
Snow Depth 0.00 in    
Sea Level Pressure  
Sea Level Pressure 29.98 in    
Wind  
Wind Speed 11 mph (SSW)    
Max Wind Speed 17 mph    
Max Gust Speed 22 mph    
Visibility 10 miles    
Events      
T = Trace of Precipitation, MM = Missing Value Source: NWS Daily Summary

Daily Weather History Graph

Daily Weather History Graph

Search for Another Location

Airport or City:

Trip Planner

Search our weather history database for the weather conditions in past years. The results will help you decide how hot, cold, wet, or windy it might be!

Date:

Astronomy

Sep. 16, 2012 Rise Set
Actual Time 7:15 AM CDT 7:39 PM CDT
Civil Twilight 6:47 AM CDT 8:07 PM CDT
Nautical Twilight 6:15 AM CDT 8:39 PM CDT
Astronomical Twilight 5:42 AM CDT 9:12 PM CDT
Moon 7:57 AM CDT (9/16) 7:44 PM CDT (9/16)
Length of Visible Light 13h 19m
Length of Day
12h 24m
New Moon, 0% of the Moon is Illuminated
Sep 16
New Moon
Sep 22
First Quarter
Sep 29
Full
Oct 8
Last Quarter
Oct 15
New

Hourly Weather History & Observations

Time (CDT) Temp. Heat Index Dew Point Humidity Pressure Visibility Wind Dir Wind Speed Gust Speed Precip Events Conditions
12:53 AM 61.0 °F - 59.0 °F 93% 30.06 in 10.0 mi South 10.4 mph - N/A   Clear
1:53 AM 60.1 °F - 59.0 °F 96% 30.05 in 10.0 mi South 10.4 mph - N/A   Scattered Clouds
2:03 AM 60.8 °F - 60.8 °F 100% 30.08 in 9.0 mi SSW 10.4 mph 19.6 mph N/A   Mostly Cloudy
2:11 AM 60.8 °F - 60.8 °F 100% 30.08 in 10.0 mi SSW 10.4 mph - N/A   Mostly Cloudy
2:53 AM 60.1 °F - 60.1 °F 100% 30.04 in 9.0 mi SSW 13.8 mph - N/A   Overcast
3:53 AM 61.0 °F - 60.1 °F 97% 30.02 in 10.0 mi SSW 10.4 mph - N/A   Overcast
4:53 AM 61.0 °F - 60.1 °F 97% 30.02 in 10.0 mi SSW 13.8 mph - N/A   Overcast
5:53 AM 62.1 °F - 60.1 °F 93% 30.02 in 10.0 mi SW 9.2 mph - N/A   Overcast
6:53 AM 62.6 °F - 59.0 °F 88% 30.05 in 10.0 mi SW 9.2 mph - N/A   Overcast
7:53 AM 61.0 °F - 59.0 °F 93% 30.03 in 10.0 mi SSW 10.4 mph - N/A   Overcast
8:53 AM 62.1 °F - 57.9 °F 86% 30.02 in 10.0 mi SSW 11.5 mph - N/A   Overcast
9:53 AM 64.0 °F - 57.9 °F 80% 30.02 in 10.0 mi SSW 10.4 mph - N/A   Mostly Cloudy
10:06 AM 64.4 °F - 57.2 °F 77% 30.04 in 10.0 mi SSW 11.5 mph - N/A   Scattered Clouds
10:53 AM 66.9 °F - 57.0 °F 70% 30.01 in 10.0 mi South 10.4 mph - N/A   Clear
11:53 AM 72.0 °F - 55.9 °F 57% 30.00 in 10.0 mi SSW 10.4 mph 18.4 mph N/A   Clear
12:53 PM 75.0 °F - 55.0 °F 50% 29.98 in 10.0 mi SSW 11.5 mph - N/A   Clear
1:53 PM 78.1 °F - 54.0 °F 43% 29.96 in 10.0 mi South 9.2 mph 19.6 mph N/A   Clear
2:53 PM 80.6 °F 80.3 °F 53.6 °F 39% 29.96 in 10.0 mi SSW 11.5 mph - N/A   Clear
3:53 PM 80.1 °F - 48.9 °F 34% 29.90 in 10.0 mi South 12.7 mph 18.4 mph N/A   Clear
4:53 PM 79.0 °F - 48.9 °F 35% 29.88 in 10.0 mi SSW 13.8 mph - N/A   Clear
5:53 PM 77.0 °F - 50.0 °F 39% 29.88 in 10.0 mi SSW 15.0 mph - N/A   Clear
6:53 PM 73.9 °F - 52.0 °F 46% 29.88 in 10.0 mi South 11.5 mph - N/A   Clear
7:53 PM 68.0 °F - 53.1 °F 59% 29.89 in 10.0 mi South 6.9 mph - N/A   Clear
8:53 PM 64.0 °F - 52.0 °F 65% 29.90 in 10.0 mi SSE 6.9 mph - N/A   Clear
9:53 PM 64.0 °F - 55.9 °F 75% 29.89 in 10.0 mi SSE 8.1 mph - N/A   Clear
10:53 PM 63.0 °F - 55.9 °F 78% 29.89 in 10.0 mi SSE 10.4 mph - N/A   Clear
11:53 PM 62.1 °F - 55.9 °F 80% 29.88 in 10.0 mi South 10.4 mph - N/A   Clear